Showing default

COSMOS 2476 (GLONASS), 37867

Orbit data source: Space-Track

COSMOS 2476 (GLONASS), 37867 is a Commonwealth of Independent States-origin payload satellite in MEO that was launched on Fri, 04 Nov 2011 UTC via a PROTON-M/BRIZ-M launch vehicle from the Tyuratam Missile And Space Complex (TTMTR). Payload-class satellites include a variety of spacecraft equipped with specific instruments for various scientific and technological missions. These include communications satellites like Starlink; space stations such as the ISS; scientific satellites like the Hubble; Earth observation satellites from companies like Planet Labs, Umbra, and HawkEye 360; GPS; miniature CubeSats for education and research; and military/defense satellites.

Loading next visibility...
Identifier
37867, 2011-064A
Orbit
MEO
Last TLE update
8 hours ago
Origin
Manufacturer
Resehetnev ISS
Mission
Operational Defense Navigation
Bus & Motor
URAGAN, Unknown motor
Mass
1,450 kg wet, ~1,200 kg dry
Launch date (UTC)
2011-11-04 (14 years ago)
Launch vehicle
PROTON-M/BRIZ-M
Launch site
Tyuratam Missile And Space Complex (TTMTR)
Object type
Payload
Rocket body
Debris
Shape & HBR
Cyl + 1 Ant + 2 Pan, 7.8 m
Radar Cross Section
8.467 m², Large (>1 m²)

Expand to show TLE details & history

TLE from 8 hours ago
0 COSMOS 2476 (GLONASS)
1 37867U 11064A   25130.47810270 -.00000009  00000-0  00000-0 0  9993
2 37867  65.0456  86.4903 0023676 241.6937 218.2784  2.13101591105185
Epoch: 2025-05-10T11:28Z
Definitive object data (Epoch: 2025-05-10T11:28:28.073Z)
Latitude
63.31684°
Longitude
158.25158°
Altitude
19,187.494 km
Speed
3.947 km/s
True Right ascension
13h 15m 33s
True Declination
63° 16' 42"
Sunlit
Object was in daylight at TLE epoch
Visualization TLE readout
Latitude
2.1163°
Longitude
46.81156°
Altitude
19,160.933 km
Speed
3.948 km/s
Apparent Right ascension
06h 15m 01s
Apparent Declination
-8° 20' 19"
Sunlit
Object is in daylight
Visualization observer readout
Local Sidereal Time
03:55:22
Azimuth
138.136° SSE
Elevation
31.956°
Doppler factor
1
Orbital elements
Apogee altitude
19,189.925 km
Perigee altitude
19,069.141 km
Semi-major axis
25,507.67 km
Eccentricity
0.0023676
Inclination
65.0456°
RAAN
86.4903°
Arg. of periapsis
241.6937°
True anomaly
218.11072°
Mean anomaly
218.2784°
Eccentric anomaly
218.19452°
Mean motion
0.53277 °/min
BSTAR
Unknown
Orbital period
675.72 mins
Loading maneuver chart data...
Loading SW <> Apogee altitude chart data...
Loading historical data...
Loading historical data...
Loading historical data...
Loading historical data...
Loading historical data...
Loading historical data...
Loading historical data...

COSMOS 2476 (GLONASS) Visibility forecast

Observer location: undefined°, undefined°

Span
Click to sort rows by Start time (UTC) header in descending order
Start Az.
Max El. time (UTC)
Max El. Az.
Max El.
End time (UTC)
End Az.
204 mins2025-05-10 19:40:25.693Z138.158° SSE2025-05-10 20:58:25.693Z82.914° E40.778°2025-05-10 23:04:25.693Z33.573° NE
212 mins2025-05-11 09:18:25.693Z332.327° NNW2025-05-11 11:03:25.693Z287.679° WNW34.684°2025-05-11 12:50:25.693Z231.361° WSW
105 mins2025-05-11 17:55:25.693Z122.449° SE2025-05-11 19:37:25.693Z69.106° E32.811°2025-05-11 19:40:25.693Z66.953° ENE
|